Content
SEND FEEDBACK

Daily
Averages
Monthly
Summary
United States of America

PENNINGTON GAP, VIRGINIA


Home > North America > United States > Virginia
Elevation: 439 meters     Latitude: 36 45N     Longitude: 083 03W

WEATHER
 
SELECT A DAY
Number of Records: 111,245;   Date Range: 9/21/10 - 9/20/14
 
SHARE

PRINT THIS DATA

[ ← Previous Day ]
WEATHER ALMANAC - 31 JANUARY, 2013
[ Next Day → ]
[ °F ]   °C
Weather ElementAverageHighLow
Temperature1.3 °C3 °C (12:35 am)0 °C (2:35 am)
Dewpoint-5.4 °C1 °C (1:15 am)-8 °C (7:35 am)
Humidity62.2 %93 % (1:15 am)45 % (2:35 pm)
Barometer1013.5 hPa1015.9 hPa (11:15 am)1004.1 hPa (12:35 am)
Wind Speed18.2 km/h37 km/h (3:35 am)
Wind Gust46.3 km/h (1:55 am)
Weather ElementAverage
Visibility15.4 km
Wind DirectionWSW (256.3 °)

Weather ElementTotal
Precipitation2.29 mm
Heating Degree Days16.8 (Base 18.3)
Averaged from 70 records on 31 January, 2013
WEATHER CONDITIONS BREAKOUT
WIND DIRECTION BREAKOUT
WEATHER BY HOUR - 31 JANUARY, 2013
[ °F ]   °C
Local TimeTemperatureDewpointHumidityBarometerVisibilityWind DirectionWind SpeedGust SpeedPrecipitationEventsConditions
12:35 AM3 °C0 °C81 %1004.1 hPa16.1 kmWest (270°)22.2 km/h44.4 km/hOvercast
12:55 AM3 °C0 °C81 %1005.1 hPa11.3 kmWest (270°)20.4 km/h35.2 km/hRainLight Rain
1:15 AM2 °C1 °C93 %1005.8 hPa6.4 kmWest (270°)14.8 km/hRainLight Rain
1:35 AM2 °C-1 °C81 %1006.1 hPa16.1 kmWest (270°)22.2 km/h40.7 km/hOvercast
1:55 AM1 °C-1 °C87 %1007.1 hPa8 kmWest (270°)29.6 km/h46.3 km/h0.51 mmRainLight Rain
2:15 AM1 °C-2 °C81 %1007.8 hPa16.1 kmWest (280°)16.7 km/h33.3 km/hOvercast
2:35 AM0 °C-3 °C80 %1008.1 hPa8 kmWest (280°)27.8 km/h40.7 km/h0.76 mmRainLight Rain
2:55 AM0 °C-4 °C75 %1008.5 hPa16.1 kmWest (260°)27.8 km/h37 km/h1.02 mmOvercast
3:15 AM0 °C-5 °C69 %1009.1 hPa16.1 kmWest (270°)22.2 km/h38.9 km/hOvercast
3:35 AM0 °C-5 °C69 %1009.5 hPa16.1 kmWest (280°)37 km/h44.4 km/hRainLight Rain
3:55 AM0 °C-5 °C69 %1009.8 hPa14.5 kmWest (260°)25.9 km/h35.2 km/hRainLight Rain
4:15 AM0 °C-5 °C69 %1010.2 hPa14.5 kmWest (280°)18.5 km/h27.8 km/hRainLight Rain
4:35 AM0 °C-5 °C69 %1010.2 hPa16.1 kmWest (260°)18.5 km/h31.5 km/hRainLight Rain
4:55 AM0 °C-5 °C69 %1010.8 hPa16.1 kmWest (270°)25.9 km/h37 km/hRainLight Rain
5:15 AM0 °C-4 °C75 %1011.2 hPa16.1 kmWest (280°)16.7 km/h29.6 km/hRainLight Rain
5:35 AM0 °C-5 °C69 %1011.2 hPa16.1 kmWest (270°)20.4 km/h27.8 km/hRainLight Rain
5:55 AM0 °C-4 °C75 %1011.2 hPa16.1 kmWSW (250°)13 km/hRainLight Rain
6:15 AM0 °C-4 °C75 %1011.2 hPa16.1 kmWest (270°)7.4 km/hOvercast
6:35 AM0 °C-5 °C69 %1011.5 hPa16.1 kmWSW (250°)18.5 km/h25.9 km/hRainLight Rain
7:15 AM0 °C-7 °C60 %1012.2 hPa16.1 kmWSW (250°)24.1 km/h33.3 km/hOvercast
7:35 AM0 °C-8 °C55 %1012.5 hPa16.1 kmWest (270°)18.5 km/h27.8 km/hOvercast
7:55 AM0 °C-8 °C55 %1012.9 hPa16.1 kmWest (270°)16.7 km/h29.6 km/hOvercast
8:15 AM0 °C-8 °C55 %1013.2 hPa16.1 kmWest (260°)13 km/h31.5 km/hOvercast
8:35 AM0 °C-7 °C60 %1013.5 hPa16.1 kmWest (260°)20.4 km/h25.9 km/hOvercast
8:55 AM0 °C-7 °C60 %1014.2 hPa16.1 kmWest (280°)13 km/hOvercast
9:15 AM0 °C-7 °C60 %1014.6 hPa11.3 kmWest (280°)14.8 km/hSnowLight Snow
9:35 AM0 °C-6 °C64 %1014.9 hPa16.1 kmWest (270°)13 km/hSnowLight Snow
9:55 AM0 °C-5 °C69 %1015.2 hPa16.1 kmWest (260°)14.8 km/hMostly Cloudy
10:15 AM0 °C-7 °C60 %1015.2 hPa16.1 kmWest (270°)18.5 km/h40.7 km/hMostly Cloudy
10:35 AM0 °C-7 °C60 %1015.6 hPa16.1 kmWest (270°)14.8 km/h25.9 km/hOvercast
10:55 AM0 °C-8 °C55 %1015.6 hPa16.1 kmWNW (290°)24.1 km/h37 km/hOvercast
11:15 AM0 °C-8 °C55 %1015.9 hPa16.1 kmWest (260°)20.4 km/h38.9 km/hOvercast
11:35 AM0 °C-7 °C60 %1015.9 hPa16.1 kmWSW (240°)14.8 km/h33.3 km/hOvercast
11:55 AM0 °C-6 °C64 %1015.9 hPa14.5 kmWSW (250°)16.7 km/h38.9 km/hScattered Clouds
12:15 PM0 °C-5 °C69 %1015.6 hPa16.1 kmWSW (240°)27.8 km/h35.2 km/hScattered Clouds
12:35 PM0 °C-5 °C69 %1015.9 hPa14.5 kmWest (260°)22.2 km/h31.5 km/hRainLight Rain
12:55 PM0 °C-5 °C69 %1015.6 hPa16.1 kmWSW (250°)24.1 km/h35.2 km/hRainLight Rain
1:15 PM1 °C-5 °C65 %1015.6 hPa16.1 kmWest (270°)22.2 km/hRainLight Rain
1:35 PM1 °C-7 °C56 %1015.9 hPa16.1 kmWest (270°)22.2 km/h38.9 km/hRainLight Rain
1:55 PM2 °C-7 °C52 %1015.9 hPa16.1 kmWSW (250°)22.2 km/h35.2 km/hMostly Cloudy
2:15 PM2 °C-8 °C48 %1015.6 hPa16.1 kmWSW (250°)24.1 km/h35.2 km/hMostly Cloudy
2:35 PM3 °C-8 °C45 %1015.6 hPa16.1 kmWest (270°)20.4 km/h31.5 km/hMostly Cloudy
2:55 PM3 °C-8 °C45 %1015.2 hPa16.1 kmWSW (240°)20.4 km/h37 km/hMostly Cloudy
3:15 PM3 °C-8 °C45 %1015.6 hPa16.1 kmWest (260°)24.1 km/h35.2 km/hMostly Cloudy
3:35 PM3 °C-8 °C45 %1015.2 hPa16.1 kmSW (230°)27.8 km/h37 km/hMostly Cloudy
3:55 PM3 °C-8 °C45 %1015.6 hPa16.1 kmWest (260°)24.1 km/hMostly Cloudy
4:15 PM3 °C-8 °C45 %1015.6 hPa16.1 kmWSW (240°)20.4 km/hMostly Cloudy
4:35 PM3 °C-8 °C45 %1015.6 hPa16.1 kmWSW (250°)13 km/hOvercast
4:55 PM3 °C-7 °C48 %1015.2 hPa16.1 kmWSW (240°)18.5 km/hOvercast
5:15 PM3 °C-7 °C48 %1015.6 hPa16.1 kmWSW (250°)13 km/h27.8 km/hOvercast
5:35 PM3 °C-7 °C48 %1015.6 hPa16.1 kmWSW (250°)11.1 km/hOvercast
5:55 PM3 °C-7 °C48 %1015.2 hPa16.1 kmWest (260°)16.7 km/hOvercast
6:15 PM3 °C-7 °C48 %1015.6 hPa16.1 kmWSW (240°)14.8 km/hOvercast
6:35 PM3 °C-6 °C52 %1015.2 hPa16.1 kmWSW (240°)14.8 km/hOvercast
6:55 PM2 °C-6 °C56 %1015.6 hPa16.1 kmWSW (250°)11.1 km/hMostly Cloudy
7:15 PM2 °C-6 °C56 %1015.6 hPa16.1 kmWSW (240°)11.1 km/hOvercast
7:35 PM2 °C-5 °C60 %1015.6 hPa16.1 kmWSW (240°)9.3 km/hOvercast
7:55 PM2 °C-5 °C60 %1015.6 hPa16.1 kmSW (220°)7.4 km/hOvercast
8:15 PM1 °C-5 °C65 %1015.6 hPa16.1 kmSW (230°)7.4 km/hOvercast
8:35 PM1 °C-5 °C65 %1015.6 hPa16.1 kmWSW (240°)7.4 km/hOvercast
8:55 PM1 °C-4 °C70 %1015.6 hPa16.1 kmSW (230°)9.3 km/hOvercast
9:15 PM1 °C-5 °C65 %1015.2 hPa16.1 kmWSW (240°)9.3 km/hOvercast
9:35 PM1 °C-5 °C65 %1015.2 hPa16.1 kmWSW (250°)11.1 km/hOvercast
9:55 PM2 °C-5 °C60 %1014.9 hPa16.1 kmWSW (240°)18.5 km/hOvercast
10:15 PM2 °C-4 °C65 %1014.9 hPa16.1 kmWSW (240°)13 km/hOvercast
10:35 PM2 °C-4 °C65 %1014.6 hPa16.1 kmWSW (240°)16.7 km/hOvercast
10:55 PM3 °C-4 °C60 %1014.2 hPa16.1 kmWSW (240°)16.7 km/hOvercast
11:15 PM3 °C-4 °C60 %1014.2 hPa16.1 kmWSW (240°)16.7 km/hOvercast
11:35 PM3 °C-4 °C60 %1013.9 hPa16.1 kmWSW (250°)18.5 km/h27.8 km/hOvercast
11:55 PM3 °C-4 °C60 %1013.9 hPa16.1 kmWSW (240°)18.5 km/h31.5 km/hOvercast
Hourly data recorded from K0VG, located 0 kilometers away from Pennington Gap, Virginia







STORIES FROM OUR PARTNERS